Flag for Germany Weather past 2 weeks in Norderstedt, Schleswig-Holstein, Germany

43 °F

Scattered clouds.

Feels Like: 38 °F
Forecast: 39 / 49 °F
Wind: 8 mph from West

Location: Hamburg-Fuhlsbuettel

Current Time: Nov 28, 2015 at 1:14:03 PM

Latest Report: Nov 28, 2015 at 12:20 PM

Visibility: N/A

Pressure: 29.68 "Hg

Humidity: 93%

Dew point: 41 °F

Location of NorderstedtLocation

Historic Weather in Norderstedt — Graph


Norderstedt temperature yesterday

Maximum temperature yesterday: 45 °F (at 2:50 PM)
Minimum temperature yesterday: 32 °F (at 4:50 AM)
Average temperature yesterday: 39 °F

Past Weeks' High & Low Weather Summary

High57 °F (Nov 13, 12:50 PM)100% (Nov 15, 12:20 AM)30.15 "Hg (Nov 15, 12:20 AM)
Low30 °F (Nov 22, 2:20 AM)58% (Nov 13, 3:50 PM)29.30 "Hg (Nov 21, 1:20 AM)
Average44 °F89%29.73 "Hg
* Reported Nov 13 11:20 AM — Nov 28 11:50 AM, Norderstedt, Weather by CustomWeather, © 2015

Note: Actual official high and low records may vary slightly from our data, if they occured in-between our weather recording intervals... More about our weather records


Norderstedt weather history for previous 24 hours

Time TempWeatherWind HumidityBarometerVisibility
11:50 AM
Sat, Nov 28
43 °FDrizzle. Partly sunny.13 mph93%29.68 "HgN/A
11:20 AM43 °FLight rain. Partly sunny.10 mph93%29.65 "HgN/A
10:50 AM43 °FPartly sunny.12 mph87%29.65 "HgN/A
10:20 AM43 °FLight rain. Partly sunny.13 mph93%29.62 "HgN/A
9:50 AM41 °FLight rain. Partly sunny.10 mph100%29.62 "HgN/A
9:20 AM41 °FLight rain. Partly sunny.8 mph93%29.59 "HgN/A
8:50 AM39 °FLight rain. Broken clouds.9 mph93%29.59 "HgN/A
8:20 AM37 °FRain. Broken clouds.15 mph93%29.56 "Hg4 mi
7:20 AM37 °FLight rain. Passing clouds.16 mph93%29.56 "HgN/A
6:50 AM37 °FPartly cloudy.16 mph93%29.56 "Hg4 mi
5:50 AM39 °FLight rain. Low clouds.18 mph81%29.56 "HgN/A
5:20 AM39 °FOvercast.16 mph81%29.56 "HgN/A
4:50 AM39 °FOvercast.12 mph81%29.56 "HgN/A
4:20 AM39 °FOvercast.15 mph81%29.59 "HgN/A
3:50 AM39 °FOvercast.12 mph81%29.59 "HgN/A
3:20 AM37 °FPassing clouds.12 mph81%29.62 "HgN/A
2:50 AM37 °FPassing clouds.15 mph81%29.62 "HgN/A
2:20 AM39 °FPartly cloudy.12 mph81%29.65 "HgN/A
1:50 AM39 °FPassing clouds.10 mph81%29.65 "HgN/A
1:20 AM39 °FPassing clouds.12 mph81%29.68 "HgN/A
12:50 AM39 °FPassing clouds.12 mph87%29.68 "HgN/A
11:50 PM
Fri, Nov 27
41 °FOvercast.15 mph81%29.71 "HgN/A
11:20 PM41 °FOvercast.13 mph81%29.74 "HgN/A
10:50 PM39 °FOvercast.13 mph81%29.74 "HgN/A
9:50 PM39 °FOvercast.14 mph87%29.77 "HgN/A
9:20 PM41 °FPassing clouds.14 mph76%29.77 "HgN/A
8:50 PM41 °FPassing clouds.16 mph76%29.80 "HgN/A
8:20 PM41 °FPartly cloudy.16 mph76%29.80 "HgN/A
7:50 PM41 °FClear.16 mph81%29.80 "Hg10 mi
7:20 PM41 °FClear.13 mph81%29.83 "Hg10 mi
6:20 PM41 °FClear.15 mph81%29.86 "Hg10 mi
5:50 PM41 °FClear.14 mph87%29.86 "Hg10 mi
5:20 PM41 °FClear.13 mph87%29.86 "Hg10 mi
4:50 PM41 °FClear.12 mph87%29.86 "Hg10 mi
4:20 PM43 °FClear.10 mph81%29.89 "Hg10 mi
3:50 PM43 °FScattered clouds.13 mph81%29.89 "HgN/A
3:20 PM43 °FPartly sunny.13 mph81%29.89 "HgN/A
2:50 PM45 °FPartly sunny.15 mph76%29.92 "HgN/A
2:20 PM43 °FPassing clouds.14 mph81%29.92 "HgN/A
1:50 PM43 °FScattered clouds.14 mph87%29.95 "HgN/A
1:20 PM43 °FPassing clouds.16 mph81%29.95 "HgN/A
Weather by CustomWeather, © 2015

See weather overviewHow to use our weather pages